Showing default

STRIX-4, 60352

Orbit data source: Space-Track

STRIX-4, 60352 is a payload satellite owned by Synspective (JP) in LEO that was launched on Fri, 02 Aug 2024 UTC via an ELECTRON launch vehicle from the Rocket Lab Launch Complex (RLLC). Payload-class satellites include a variety of spacecraft equipped with specific instruments for various scientific and technological missions. These include communications satellites like Starlink; space stations such as the ISS; scientific satellites like the Hubble; Earth observation satellites from companies like Planet Labs, Umbra, and HawkEye 360; GPS; miniature CubeSats for education and research; and military/defense satellites.

Loading next visibility...
Identifier
60352, 2024-137A
Orbit
LEO
Country
Flag of JPJP / JPN
Related business
Manufacturer
Synspective
Mission
Operational Commercial Radar Imaging
Bus & Motor
STRIX, Unknown motor
Mass
150 kg wet, 150 kg dry
Launch date (UTC)
2024-08-02 (1 year ago)
Launch vehicle
ELECTRON
Launch site
Rocket Lab Launch Complex (RLLC)
Object type
Payload
Rocket body
Debris
Shape & HBR
Box + 2 Pan, 1.0 m
Radar Cross Section
1.052 m², Medium (>0.1 m² and < 1m²)

Expand to show TLE details & history
Last TLE update: 13 hours ago

TLE from 13 hours ago
0 STRIX-4
1 60352U 24137A   25312.79800140  .00021930  00000-0  89623-3 0  9991
2 60352  43.0221  91.0243 0017635 292.8829  67.0159 15.23833557 70299
Epoch: 2025-11-08T19:09Z
TLE epoch observation values (Epoch: 2025-11-08T19:09:07.320Z)
Latitude
-0.00009°
Longitude
115.52125°
Altitude
489.355 km
Speed
7.625 km/s
True Right ascension
06h 04m 05s
True Declination
0° 00' 00"
Sunlit
Object was in full shadow at epoch
Visualization orbit readout
Latitude
Unknown
Longitude
Unknown
Altitude
Unknown
Speed
Unknown
Apparent Right ascension
Unknown
Apparent Declination
Unknown
Sunlit
N/A
Visualization observer readout
Local Sidereal Time
03:55:06
Azimuth
Unknown
Elevation
Unknown
Doppler factor
Unknown
Orbital elements
Apogee altitude
508.352 km
Perigee altitude
484.106 km
Semi-major axis
6,874.366 km
Eccentricity
0.00176
Inclination
43.0221°
RAAN
91.0243°
Arg. of periapsis
292.8829°
True anomaly
67.2021°
Mean anomaly
67.0159°
Eccentric anomaly
67.10898°
Mean motion
3.80798 °/min
Orbital period
94.54 mins
BSTAR
0.00089623
Loading maneuver chart data...
Computing Atmospheric mass density...
Loading historical data...
Loading historical data...
Loading historical data...
Loading historical data...
Loading historical data...
Loading historical data...
Loading historical data...
Other satellites on launch #137 in the year 2024 (2024-08-02 UTC)

Documentation

Showing up to 5 results
|